Regional Weather Roundup
Issued by NWS Spokane, WA

Home | Current Version | Previous Version | Text Only | Print | Product List | Glossary On
Versions: 1 2 3 4 5 6 7 8 9 10 11 12 13 14 15 16 17 18 19 20 21 22 23 24 25 26 27 28 29 30 31 32 33 34 35 36 37 38 39 40 41 42 43 44 45 46 47 48 49 50
881
NZUS01 KOTX 271925
RWROTX

Eastern Washington/Northern Idaho Roundup
National Weather Service, Spokane WA
1200 PM PDT THU JUL 27 2017

Note: "fair" indicated few or no clouds below 12,000 feet with no
significant weather and/or obstructions to visibility.

...Northeast Washington and Northern Idaho Panhandle...

CITY           SKY/WX    TMP DP  RH WIND       PRES   REMARKS
Spokane Intl   MOSUNNY   82  48  30 SW13      30.03F
Spokane Downto SUNNY     86  46  24 S12G21    30.02F
Coeur d Alene  MOSUNNY   79  51  37 SE12      30.05F
Deer Park      SUNNY     83  48  29 SE14      30.03F
Sandpoint      SUNNY     82  50  32 S7        30.02S
Bonners Ferry  FAIR      84  50  30 S6        29.99S

...Southeast Washington and southern Idaho Panhandle...

CITY           SKY/WX    TMP DP  RH WIND       PRES   REMARKS
Walla Walla    SUNNY     89  46  22 SW16      30.00F
Pullman/Moscow SUNNY     83  46  27 VRB7      30.08F
Lewiston       SUNNY     87  50  27 VRB3      30.00F
Lowell           N/A     86  54  33 CALM      29.99F
Grangeville    FAIR      82  46  28 NE7G16    30.09S

...Columbia Basin...

CITY           SKY/WX    TMP DP  RH WIND       PRES   REMARKS
Ephrata        SUNNY     87  44  22 MISG      29.95F
Moses Lake     SUNNY     86  48  26 S6        29.97S
Pasco          SUNNY     87  53  31 SW6       29.96F
Richland       CLEAR     91  51  25 S10       29.95F
Hermiston      SUNNY     89  46  22 W16G24    29.98F
Pendleton      SUNNY     90  38  16 W14G24    30.01F

...East Slopes Cascades...

CITY           SKY/WX    TMP DP  RH WIND       PRES   REMARKS
The Dalles     SUNNY     83  51  33 NW15G25   30.01F
Yakima         SUNNY     89  46  22 VRB3      29.98F
Ellensburg     SUNNY     85  42  22 NW22G31   30.00F
Stampede Pass  PTSUNNY   58  55  90 VRB3      30.18S
Wenatchee      SUNNY     87  39  18 NW13      29.95F
Omak           SUNNY     90  41  18 VRB6      29.92F
Chelan           N/A     84  45  24 SE6         N/A
Sunnyside        N/A     84  55  37 CALM      29.97F

...Southern British Columbia...

CITY           SKY/WX    TMP DP  RH WIND       PRES   REMARKS
Penticton      MOSUNNY   88  48  25 N9        29.92F
Castlegar      MOSUNNY   91  48  22 S14       29.90F
Cranbrook      PTSUNNY   86  43  22 N3        29.97F
Osoyoos          N/A     88  45  22 NW6         N/A
Creston          N/A     84  46  26 S6          N/A

...Western Montana...

CITY           SKY/WX    TMP DP  RH WIND       PRES   REMARKS
Kalispell      CLEAR     87  45  23 S9        30.00F
Libby            N/A     90  43  19 SE5       29.97F
Missoula       MOSUNNY   84  49  29 S9        30.05F

...Neighboring Cities...

CITY           SKY/WX    TMP DP  RH WIND       PRES   REMARKS
Seattle        CLOUDY    62  52  69 SW7       30.18S
Portland       CLOUDY    65  53  65 N7        30.17F
Boise          SUNNY     88  50  27 MISG      30.07F
Great Falls    CLOUDY    88  40  18 N8        30.04F
Calgary        MOSUNNY   88  37  16 SE9       29.92F



USA.gov is the U.S. government's official web portal to all federal, state and local government web resources and services.